Starlink 31190

operational
NORAD ID: 58897 Int'l Des: 2024-020 Owner: SPXS Country: US Constellation: starlink
LEOCIRCULAR

Starlink 31190について

説明を読み込み中...

リアルタイム位置

3D地球を読み込み中...

次回通過

高度履歴

Altitude vs Time

uPlot chart will show altitude changes over time

軌道要素

1 58897U 24020X 25351.30010547 -.00000951 00000-0 -19999-4 0 9999
2 58897 53.1620 345.3377 0001653 84.2640 275.8549 15.30188234105457
Epoch: Dec 17, 2025 • Age: 5 hours

現在のステータス

高度 476.1 km
速度 7.63 km/s
衛星直下点 0.99°N, 113.1°W
打ち上げ日 Jan 29, 2024
運用期間 1.8 years
タイプ internet

技術仕様

分類 Payload
質量 730.00 kg
乾燥質量 700.00 kg
総質量 730.00 kg
長さ 0.30 m
直径 4.10 m
スパン 29.00 m
形状 Box + pan
製造者 SPXS
バスタイプ Starlink V2M
フェーズステータス In Orbit
所有者/国 SPXS/US

大規模コンステレーション

Loading constellations...